Flag for Brunei Weather past 2 weeks in Bandar Seri Begawan, Brunei

Now
81 °F

Partly cloudy.


Feels Like: 87 °F
Forecast: 76 / 88 °F
Wind: 9 mph from Northeast

Location: Brunei Airport

Current Time: Feb 28, 2015 at 9:07:41 PM

Latest Report: Feb 28, 2015 at 8:30 PM


Visibility: 6 mi

Pressure: 29.83 "Hg

Humidity: 89%

Dew point: 77 °F

Location of Bandar Seri BegawanLocation

Historic Weather in Bandar Seri Begawan — Graph

°F

Bandar Seri Begawan temperature yesterday

Maximum temperature yesterday: 88 °F (at 11:00 AM)
Minimum temperature yesterday: 77 °F (at 6:00 AM)
Average temperature yesterday: 82 °F

Past Weeks' High & Low Weather Summary

 TemperatureHumidityPressure
High93 °F (Feb 28, 2:00 PM)100% (Feb 14, 1:00 AM)29.95 "Hg (Feb 14, 1:00 AM)
Low75 °F (Feb 14, 1:00 AM)49% (Feb 28, 12:30 PM)29.74 "Hg (Feb 27, 3:30 PM)
Average81 °F85%29.85 "Hg
* Reported Feb 13 8:00 PM — Feb 28 8:00 PM, Bandar Seri Begawan, Weather by CustomWeather, © 2015

Note: Actual official high and low records may vary slightly from our data, if they occured in-between our weather recording intervals... More about our weather records

Advertising

Bandar Seri Begawan weather history for previous 24 hours

 ConditionsComfort  
Time TempWeatherWind HumidityBarometerVisibility
8:00 PM
Sat, Feb 28
82 °FPartly cloudy.10 mph84%29.80 "Hg6 mi
7:30 PM82 °FPartly cloudy.12 mph84%29.80 "Hg6 mi
7:00 PM82 °FPassing clouds.9 mph84%29.80 "Hg6 mi
6:30 PM82 °FPartly sunny.12 mph84%29.80 "Hg6 mi
6:00 PM82 °FPartly sunny.10 mph84%29.77 "Hg6 mi
5:30 PM84 °FPartly sunny.9 mph74%29.77 "Hg6 mi
5:00 PM86 °FPartly sunny.9 mph75%29.74 "HgN/A
4:30 PM86 °FPartly sunny.10 mph70%29.74 "HgN/A
4:00 PM86 °FPartly sunny.13 mph75%29.74 "HgN/A
3:30 PM88 °FPartly sunny.10 mph70%29.74 "HgN/A
3:00 PM88 °FPartly sunny.13 mph70%29.77 "HgN/A
2:30 PM90 °FPartly sunny.12 mph63%29.77 "HgN/A
2:00 PM93 °FPartly sunny.12 mph53%29.77 "HgN/A
1:30 PM91 °FPartly sunny.12 mph49%29.80 "HgN/A
1:00 PM91 °FPartly sunny.10 mph49%29.80 "HgN/A
12:30 PM91 °FPartly sunny.10 mph49%29.83 "HgN/A
11:30 AM90 °FScattered clouds.9 mph52%29.86 "HgN/A
11:00 AM88 °FPartly sunny.10 mph59%29.86 "HgN/A
10:30 AM88 °FPartly sunny.13 mph62%29.86 "HgN/A
10:00 AM88 °FPartly sunny.10 mph62%29.86 "HgN/A
9:30 AM86 °FPartly sunny.6 mph70%29.86 "HgN/A
9:00 AM84 °FPartly sunny.5 mph84%29.86 "HgN/A
8:30 AM81 °FPartly sunny.3 mph94%29.86 "HgN/A
8:00 AM81 °FPartly sunny.3 mph94%29.86 "Hg5 mi
7:30 AM79 °FPartly sunny.2 mph94%29.86 "Hg5 mi
7:00 AM77 °FPartly sunny.3 mph100%29.83 "Hg5 mi
6:30 AM77 °FPassing clouds.1 mph100%29.83 "Hg5 mi
6:00 AM77 °FPassing clouds.1 mph100%29.83 "HgN/A
5:30 AM77 °FPassing clouds.2 mph100%29.80 "HgN/A
5:00 AM77 °FPassing clouds.1 mph100%29.80 "HgN/A
4:30 AM79 °FPassing clouds.1 mph94%29.80 "HgN/A
4:00 AM79 °FPassing clouds.2 mph94%29.77 "HgN/A
3:30 AM79 °FPassing clouds.1 mph94%29.77 "HgN/A
3:00 AM79 °FPassing clouds.1 mph94%29.77 "HgN/A
2:30 AM79 °FPassing clouds.2 mph94%29.80 "HgN/A
2:00 AM79 °FPassing clouds.3 mph94%29.80 "HgN/A
1:30 AM79 °FPassing clouds.1 mph94%29.83 "HgN/A
1:00 AM79 °FPassing clouds.2 mph94%29.83 "HgN/A
12:30 AM81 °FPassing clouds.2 mph89%29.83 "HgN/A
12:00 AM81 °FPassing clouds.2 mph89%29.83 "HgN/A
11:30 PM
Fri, Feb 27
81 °FPassing clouds.3 mph89%29.86 "HgN/A
11:00 PM82 °FPassing clouds.5 mph89%29.86 "HgN/A
10:30 PM82 °FPassing clouds.5 mph84%29.86 "HgN/A
9:30 PM82 °FPartly cloudy.6 mph84%29.86 "HgN/A
9:00 PM82 °FPartly cloudy.8 mph84%29.83 "HgN/A
Weather by CustomWeather, © 2015

See weather overviewHow to use our weather pages